Hauptseite
METAR-TAF:

METAR-TAF

Flughäfen :

Bütgenbach, Belgien

Elsenborn

Breite: 50-28N, Länge: 006-11E, Höhe: 564 m

Beobachtung

Neuester Wetterbericht von vor 32 Minuten, um 13:25 UTC
Wind 15 kt aus Ost
Temperatur 1°C
Luftfeuchtigkeit 40%
Luftdruck 1019 hPa
Sichtweite 10 km oder mehr

METAR: EBLB 241325Z AUTO 08015KT 9999 NCD 01/M11 Q1019 BLU

Zeit: 14:57 (13:57 UTC)


TAF: fehlend

Wetterbeobachtungen und Prognosen von mehr als 4000 Flughäfen (METAR und TAF Bericht).

Die verfügbaren Stationen werden durch gelbe und rote Markierungen auf der Karte dargestellt.

Führen Sie die Maus auf sie, um den Namen der Station zu sehen.

Darauf klicken, um die Beobachtung von Wetterbeobachtungen und Prognosen zu sehen.

Um die Karte zu ändern : klicken Sie auf den grünen Tasten mit einem schwarzen Kreuz Zum Vergrößern, auf den grünen Button mit einem Gedankenstrich zu verkleinern, oder auf die grünen Pfeile für benachbarte Karten.


METAR-TAF: